Orbital Elements at Epoch 2459200.5 (2020-Dec-17.0) TDB
Reference: JPL 15 (heliocentric ecliptic J2000)
Element | Value | Uncertainty (1-sigma) | Units |
e | .08780838916452567 | 5.7911e-08 | |
a | 2.837511151406436 | 2.6965e-08 | au |
q | 2.588353867965058 | 1.6559e-07 | au |
i | 3.958580456748106 | 5.8592e-06 | deg |
node | 292.3631853906215 | 8.397e-05 | deg |
peri | 19.10113657606229 | 8.9201e-05 | deg |
M | 206.1293818826642 | 3.0236e-05 | deg |
tp | 2459946.704716909999 (2023-Jan-02.20471691) | 0.00014772 | TDB |
period | 1745.841417773144 4.78 | 2.4886e-05 6.813e-08 | d yr |
n | .2062042957253169 | 2.9393e-09 | deg/d |
Q | 3.086668434847813 | 2.9332e-08 | au |
|
| | Orbit Determination Parameters
Additional Information
|